Time,TemperatureF,DewpointF,PressureIn,WindDirection,WindDirectionDegrees,WindSpeedMPH,WindSpeedGustMPH,Humidity,HourlyPrecipIn,Conditions,Clouds,dailyrainin,SoftwareType,DateUTC
2013-02-11 00:00:00,-2.0,-99.9,-100.00,SW,229,9.0,10.0,-999,-99.99,,,-99.99,,2013-02-11 07:00:00,
2013-02-11 00:52:00,-2.0,-99.9,-100.00,SW,229,9.0,10.0,-999,-99.99,,,-99.99,,2013-02-11 07:52:00,
2013-02-11 01:52:00,-6.0,-99.9,-100.00,West,273,5.0,7.0,-999,-99.99,,,-99.99,,2013-02-11 08:52:00,
2013-02-11 03:00:00,-4.0,-99.9,-100.00,WSW,252,6.0,7.0,-999,-99.99,,,-99.99,,2013-02-11 10:00:00,
2013-02-11 03:52:00,-4.0,-99.9,-100.00,WSW,252,6.0,7.0,-999,-99.99,,,-99.99,,2013-02-11 10:52:00,
2013-02-11 04:00:00,-4.0,-99.9,-100.00,West,267,7.0,9.0,-999,-99.99,,,-99.99,,2013-02-11 11:00:00,
2013-02-11 04:52:00,-4.0,-99.9,-100.00,West,267,7.0,9.0,-999,-99.99,,,-99.99,,2013-02-11 11:52:00,
2013-02-11 05:00:00,-2.0,-99.9,-100.00,West,260,6.0,6.0,-999,-99.99,,,-99.99,,2013-02-11 12:00:00,
2013-02-11 05:53:00,-2.0,-99.9,-100.00,West,260,6.0,6.0,-999,-99.99,,,-99.99,,2013-02-11 12:53:00,
2013-02-11 06:00:00,-2.0,-99.9,-100.00,West,271,8.0,9.0,-999,-99.99,,,-99.99,,2013-02-11 13:00:00,
2013-02-11 06:52:00,-2.0,-99.9,-100.00,West,271,8.0,9.0,-999,-99.99,,,-99.99,,2013-02-11 13:52:00,
2013-02-11 07:00:00,-4.0,-99.9,-100.00,West,267,7.0,8.0,-999,-99.99,,,-99.99,,2013-02-11 14:00:00,
2013-02-11 07:53:00,-4.0,-99.9,-100.00,West,267,7.0,8.0,-999,-99.99,,,-99.99,,2013-02-11 14:53:00,
2013-02-11 08:00:00,-2.0,-99.9,-100.00,WSW,243,3.0,6.0,-999,-99.99,,,-99.99,,2013-02-11 15:00:00,
2013-02-11 08:52:00,-2.0,-99.9,-100.00,WSW,243,3.0,6.0,-999,-99.99,,,-99.99,,2013-02-11 15:52:00,
2013-02-11 09:00:00,5.0,-99.9,-100.00,SW,217,2.0,2.0,-999,-99.99,,,-99.99,,2013-02-11 16:00:00,
2013-02-11 09:53:00,5.0,-99.9,-100.00,SW,217,2.0,2.0,-999,-99.99,,,-99.99,,2013-02-11 16:53:00,
2013-02-11 10:00:00,9.0,-99.9,-100.00,SW,221,3.0,6.0,-999,-99.99,,,-99.99,,2013-02-11 17:00:00,
2013-02-11 10:53:00,9.0,-99.9,-100.00,SW,221,3.0,6.0,-999,-99.99,,,-99.99,,2013-02-11 17:53:00,
2013-02-11 11:00:00,10.0,-99.9,-100.00,WSW,243,6.0,7.0,-999,-99.99,,,-99.99,,2013-02-11 18:00:00,
2013-02-11 11:54:00,10.0,-99.9,-100.00,WSW,243,6.0,7.0,-999,-99.99,,,-99.99,,2013-02-11 18:54:00,
2013-02-11 13:00:00,14.0,-99.9,-100.00,SW,235,5.0,7.0,-999,-99.99,,,-99.99,,2013-02-11 20:00:00,
2013-02-11 13:52:00,14.0,-99.9,-100.00,SW,235,5.0,7.0,-999,-99.99,,,-99.99,,2013-02-11 20:52:00,
2013-02-11 14:00:00,14.0,-99.9,-100.00,WSW,241,9.0,12.0,-999,-99.99,,,-99.99,,2013-02-11 21:00:00,
2013-02-11 14:52:00,14.0,-99.9,-100.00,WSW,241,9.0,12.0,-999,-99.99,,,-99.99,,2013-02-11 21:52:00,
2013-02-11 15:00:00,16.0,-99.9,-100.00,SW,232,9.0,10.0,-999,-99.99,,,-99.99,,2013-02-11 22:00:00,
2013-02-11 15:53:00,16.0,-99.9,-100.00,SW,232,9.0,10.0,-999,-99.99,,,-99.99,,2013-02-11 22:53:00,
2013-02-11 16:00:00,14.0,-99.9,-100.00,West,262,15.0,18.0,-999,-99.99,,,-99.99,,2013-02-11 23:00:00,
2013-02-11 16:53:00,14.0,-99.9,-100.00,West,262,15.0,18.0,-999,-99.99,,,-99.99,,2013-02-11 23:53:00,
2013-02-11 17:00:00,10.0,-99.9,-100.00,West,259,13.0,14.0,-999,-99.99,,,-99.99,,2013-02-12 00:00:00,
2013-02-11 17:52:00,10.0,-99.9,-100.00,West,259,13.0,14.0,-999,-99.99,,,-99.99,,2013-02-12 00:52:00,
2013-02-11 18:52:00,3.0,-99.9,-100.00,West,260,5.0,6.0,-999,-99.99,,,-99.99,,2013-02-12 01:52:00,
2013-02-11 20:00:00,3.0,-99.9,-100.00,WSW,238,22.0,26.0,-999,-99.99,,,-99.99,,2013-02-12 03:00:00,
2013-02-11 20:32:00,3.0,-99.9,-100.00,WSW,238,22.0,26.0,-999,-99.99,,,-99.99,,2013-02-12 03:32:00,
2013-02-11 20:42:00,3.0,-99.9,-100.00,WSW,238,22.0,26.0,-999,-99.99,,,-99.99,,2013-02-12 03:42:00,
2013-02-11 20:52:00,3.0,-99.9,-100.00,WSW,238,22.0,26.0,-999,-99.99,,,-99.99,,2013-02-12 03:52:00,
2013-02-11 21:00:00,3.0,-99.9,-100.00,WSW,240,22.0,28.0,-999,-99.99,,,-99.99,,2013-02-12 04:00:00,
2013-02-11 21:52:00,3.0,-99.9,-100.00,WSW,240,22.0,28.0,-999,-99.99,,,-99.99,,2013-02-12 04:52:00,
2013-02-11 22:00:00,3.0,-99.9,-100.00,SW,232,18.0,29.0,-999,-99.99,,,-99.99,,2013-02-12 05:00:00,
2013-02-11 22:52:00,3.0,-99.9,-100.00,SW,232,18.0,29.0,-999,-99.99,,,-99.99,,2013-02-12 05:52:00,
2013-02-11 23:00:00,3.0,-99.9,-100.00,West,261,24.0,31.0,-999,-99.99,,,-99.99,,2013-02-12 06:00:00,
2013-02-11 23:52:00,3.0,-99.9,-100.00,West,261,24.0,31.0,-999,-99.99,,,-99.99,,2013-02-12 06:52:00,